New Castle, DE

8:39 PM EST on December 07, 2016 (GMT -0500)
New Castle County

Weather History for KILG - January, 2014

Change the Weather History Date:

Monday, January 6, 2014

  Actual Average Record
Temperature  
Mean Temperature 35 °F 32 °F  
Max Temperature 59 °F 40 °F 71 °F (2007)
Min Temperature 11 °F 25 °F 7 °F (1942)
Degree Days  
Heating Degree Days 30 32  
Month to date heating degree days 230 192  
Since 1 July heating degree days 1994 1969  
Cooling Degree Days 0 0  
Month to date cooling degree days 0 0  
Year to date cooling degree days 0 0  
Moisture  
Dew Point 38 °F    
Average Humidity 70    
Maximum Humidity 100    
Minimum Humidity 39    
Precipitation  
Precipitation 0.36 in 0.10 in 1.55 in (1962)
Month to date precipitation 1.04 0.56  
Year to date precipitation 1.04 0.56  
Snow  
Snow 0.00 in 0.10 in 4.30 in (1989)
Month to date snowfall 5.0 0.7  
Since 1 July snowfall 16.9 4.5  
Snow Depth 0.00 in    
Sea Level Pressure  
Sea Level Pressure 29.60 in    
Wind  
Wind Speed 19 mph (SW)    
Max Wind Speed 37 mph    
Max Gust Speed 46 mph    
Visibility 5 miles    
Events Fog , Rain    
T = Trace of Precipitation, MM = Missing Value Source: NWS Daily Summary

Daily Weather History Graph

Daily Weather History Graph

Search for Another Location

Airport or City:

Trip Planner

Search our weather history database for the weather conditions in past years. The results will help you decide how hot, cold, wet, or windy it might be!

Date:

Astronomy

Jan. 06, 2014 Rise Set
Actual Time 7:23 AM EST 4:53 PM EST
Civil Twilight 6:53 AM EST 5:23 PM EST
Nautical Twilight 6:19 AM EST 5:57 PM EST
Astronomical Twilight 5:47 AM EST 6:29 PM EST
Moon 10:38 AM EST (1/6) 11:22 PM EST (1/6)
Length of Visible Light 10h 29m
Length of Day
9h 29m
Waxing Crescent, 34% of the Moon is Illuminated
Jan 6
Waxing Crescent
Jan 7
First Quarter
Jan 15
Full
Jan 24
Last Quarter
Jan 30
New

Hourly Weather History & Observations

Time (EST) Temp. Windchill Dew Point Humidity Pressure Visibility Wind Dir Wind Speed Gust Speed Precip Events Conditions
12:04 AM 46.4 °F 40.4 °F 46.4 °F 100% 29.71 in 0.2 mi South 13.8 mph - 0.01 in Fog , Rain Light Rain
12:51 AM 46.0 °F 39.9 °F 45.0 °F 96% 29.68 in 0.2 mi SSE 13.8 mph - 0.02 in Fog Fog
1:51 AM 46.0 °F 40.6 °F 46.0 °F 100% 29.65 in 0.2 mi SSE 11.5 mph - N/A Fog Fog
2:16 AM 46.4 °F 41.5 °F 46.4 °F 100% 29.63 in 0.2 mi SSE 10.4 mph - 0.01 in Fog Fog
2:51 AM 48.9 °F - 48.9 °F 100% 29.61 in 0.2 mi SSE 11.5 mph - 0.01 in Fog Fog
3:01 AM 50.0 °F - 50.0 °F 100% 29.60 in 0.2 mi SSE 11.5 mph - N/A Fog Fog
3:10 AM 50.0 °F - 50.0 °F 100% 29.59 in 0.2 mi SSE 9.2 mph - N/A Fog Fog
3:22 AM 50.0 °F - 50.0 °F 100% 29.59 in 0.2 mi South 5.8 mph - N/A Fog Fog
3:35 AM 51.8 °F - 50.0 °F 94% 29.58 in 0.2 mi Calm Calm - N/A Fog Fog
3:51 AM 50.0 °F - 50.0 °F 100% 29.56 in 0.2 mi SSE 6.9 mph - N/A Fog Fog
3:59 AM 51.8 °F - 50.0 °F 94% 29.55 in 0.2 mi South 8.1 mph - N/A Fog Fog
4:22 AM 51.8 °F - 51.8 °F 100% 29.53 in 0.2 mi SSE 10.4 mph - N/A Fog Fog
4:49 AM 51.8 °F - 51.8 °F 100% 29.52 in 0.2 mi SSE 10.4 mph - N/A Fog Fog
4:51 AM 51.1 °F - 51.1 °F 100% 29.52 in 0.2 mi South 10.4 mph - N/A Fog Fog
5:13 AM 51.8 °F - 51.8 °F 100% 29.50 in 0.2 mi SSE 11.5 mph - N/A Fog Fog
5:25 AM 51.8 °F - 51.8 °F 100% 29.49 in 0.2 mi SSE 11.5 mph - N/A Fog Fog
5:51 AM 53.1 °F - 53.1 °F 100% 29.47 in 0.5 mi South 12.7 mph - 0.01 in Fog , Rain Light Rain
5:58 AM 53.6 °F - 53.6 °F 100% 29.48 in 2.0 mi South 12.7 mph - 0.00 in   Overcast
6:16 AM 51.8 °F - 51.8 °F 100% 29.46 in 1.5 mi SSE 17.3 mph - 0.00 in   Overcast
6:28 AM 53.6 °F - 51.8 °F 94% 29.46 in 3.0 mi SSE 17.3 mph - 0.00 in Rain Light Rain
6:51 AM 54.0 °F - 53.1 °F 97% 29.45 in 4.0 mi South 13.8 mph - 0.06 in Rain Rain
7:13 AM 59.0 °F - 57.2 °F 94% 29.44 in 6.0 mi SW 13.8 mph 23.0 mph 0.03 in Rain Rain
7:20 AM 57.2 °F - 57.2 °F 100% 29.48 in 2.5 mi West 32.2 mph 44.9 mph 0.06 in Rain Heavy Rain
7:26 AM 53.6 °F - 51.8 °F 94% 29.48 in 1.8 mi West 23.0 mph 44.9 mph 0.12 in Rain Heavy Rain
7:35 AM 51.8 °F - 50.0 °F 94% 29.50 in 3.0 mi West 24.2 mph 33.4 mph 0.17 in Rain Rain
7:51 AM 50.0 °F - 48.0 °F 93% 29.51 in 7.0 mi West 20.7 mph 31.1 mph 0.18 in Rain Light Rain
7:59 AM 50.0 °F - 46.4 °F 87% 29.52 in 10.0 mi West 18.4 mph 25.3 mph 0.00 in Rain Light Rain
8:51 AM 46.9 °F - 42.1 °F 83% 29.55 in 10.0 mi West 10.4 mph - 0.02 in Rain Light Rain
9:51 AM 46.0 °F 42.5 °F 41.0 °F 83% 29.57 in 10.0 mi West 6.9 mph - 0.01 in   Overcast
10:51 AM 44.1 °F 35.0 °F 36.0 °F 73% 29.58 in 10.0 mi WNW 24.2 mph 33.4 mph 0.01 in Rain Light Rain
11:35 AM 39.2 °F 30.5 °F 33.8 °F 81% 29.60 in 10.0 mi WNW 16.1 mph 26.5 mph 0.02 in Rain Light Rain
11:51 AM 39.9 °F 30.2 °F 34.0 °F 79% 29.60 in 10.0 mi WNW 20.7 mph 25.3 mph 0.03 in Rain Light Rain
12:31 PM 37.4 °F 28.5 °F 30.2 °F 75% 29.60 in 10.0 mi WNW 15.0 mph 24.2 mph 0.02 in Rain Light Rain
12:51 PM 39.0 °F 29.6 °F 28.9 °F 67% 29.59 in 10.0 mi WNW 18.4 mph - 0.02 in   Overcast
1:51 PM 39.0 °F 28.8 °F 25.0 °F 57% 29.61 in 10.0 mi NW 21.9 mph 33.4 mph N/A   Overcast
2:51 PM 39.0 °F 29.0 °F 23.0 °F 53% 29.62 in 10.0 mi WNW 20.7 mph 29.9 mph N/A   Partly Cloudy
3:51 PM 35.1 °F 24.8 °F 19.9 °F 54% 29.65 in 10.0 mi NW 17.3 mph - N/A   Scattered Clouds
4:51 PM 34.0 °F 23.8 °F 17.1 °F 50% 29.68 in 10.0 mi WNW 16.1 mph 28.8 mph N/A   Mostly Cloudy
5:51 PM 33.1 °F 20.9 °F 17.1 °F 52% 29.73 in 10.0 mi WNW 21.9 mph 26.5 mph N/A   Overcast
6:51 PM 30.9 °F 19.4 °F 15.1 °F 52% 29.76 in 10.0 mi West 17.3 mph 24.2 mph N/A   Overcast
7:51 PM 28.0 °F 13.0 °F 9.0 °F 45% 29.79 in 10.0 mi WNW 26.5 mph 34.5 mph N/A   Clear
8:51 PM 23.0 °F 5.7 °F 5.0 °F 46% 29.85 in 10.0 mi WNW 28.8 mph 33.4 mph N/A   Clear
9:51 PM 18.0 °F -1.4 °F -4.0 °F 38% 29.89 in 10.0 mi WNW 29.9 mph 40.3 mph N/A   Clear
10:51 PM 14.0 °F -7.4 °F -7.1 °F 39% 29.95 in 10.0 mi WNW 32.2 mph 41.4 mph N/A   Clear
11:51 PM 10.9 °F -9.9 °F -8.0 °F 42% 29.99 in 10.0 mi WNW 26.5 mph 34.5 mph N/A   Clear